EW6614 Weather Reports


time (UTC)temp
C
wind
direction
speed
KPH
gust
KPH
rain 1hr
cm
rain 24hr
cm
rain mn
cm
humidity
%
barometer
mb
20260505034556 20 360 6.4 17.7 0.00 0.00 0.00 58 1009.5
20260505034524 20 360 6.4 17.7 0.00 0.00 0.00 69 1009.4
20260505033054 20 360 8.0 16.1 0.00 0.00 0.00 57 1009.4
20260505033024 20 360 8.0 16.1 0.00 0.00 0.00 69 1009.3
20260505031606 20 360 6.4 19.3 0.00 0.00 0.00 57 1009.4
20260505031523 20 360 6.4 17.7 0.00 0.00 0.00 69 1009.4
20260505030053 21 360 9.7 19.3 0.00 0.00 0.00 56 1009.7
20260505030022 21 360 9.7 19.3 0.00 0.00 0.00 68 1009.6
20260505024554 21 360 8.0 19.3 0.00 0.00 0.00 56 1009.7
20260505024522 21 360 8.0 19.3 0.00 0.00 0.00 67 1009.6
20260505023114 21 360 8.0 17.7 0.00 0.00 0.00 56 1009.5
20260505023024 21 360 8.0 16.1 0.00 0.00 0.00 67 1009.4
20260505021558 21 360 8.0 16.1 0.00 0.00 0.00 55 1009.3
20260505021527 21 360 8.0 16.1 0.00 0.00 0.00 67 1009.0
20260505020056 21 181 6.4 12.9 0.00 0.00 0.00 55 1009.1
20260505020021 21 198 8.0 11.3 0.00 0.00 0.00 66 1008.9
20260505014605 21 169 6.4 17.7 0.00 0.00 0.00 53 1008.8
20260505014520 21 163 6.4 16.1 0.00 0.00 0.00 65 1008.8
20260505013108 22 178 8.0 16.1 0.00 0.00 0.00 53 1008.7
20260505013019 22 184 9.7 16.1 0.00 0.00 0.00 64 1008.6
20260505011557 22 162 8.0 16.1 0.00 0.00 0.00 52 1008.7
20260505011523 22 187 8.0 14.5 0.00 0.00 0.00 63 1008.6
20260505010100 22 149 6.4 19.3 0.00 0.00 0.00 51 1008.9
20260505010017 22 135 4.8 19.3 0.00 0.00 0.00 63 1008.8
20260505004559 22 182 4.8 14.5 0.00 0.00 0.00 51 1008.8
20260505004521 22 175 4.8 12.9 0.00 0.00 0.00 62 1008.7
20260505003054 23 174 1.6 16.1 0.00 0.00 0.00 49 1008.8
20260505003016 23 189 3.2 14.5 0.00 0.00 0.00 61 1008.7
20260505001600 23 186 8.0 19.3 0.00 0.00 0.00 47 1008.9
20260505001516 23 168 8.0 19.3 0.00 0.00 0.00 59 1008.8
20260505000117 24 185 9.7 24.1 0.00 0.00 0.00 46 1008.9
20260505000021 24 191 8.0 24.1 0.00 0.00 0.00 57 1008.9
20260504234557 25 175 11.3 20.9 0.00 0.00 0.00 45 1009.0
20260504234512 25 146 11.3 20.9 0.00 0.00 0.00 56 1008.8
20260504233057 25 181 11.3 25.7 0.00 0.00 0.00 44 1009.0
20260504233012 25 147 11.3 25.7 0.00 0.00 0.00 55 1008.9
20260504231555 25 182 9.7 24.1 0.00 0.00 0.00 43 1009.4
20260504231511 25 165 11.3 20.9 0.00 0.00 0.00 55 1009.2
20260504230106 25 179 8.0 19.3 0.00 0.00 0.00 44 1009.6
20260504230007 25 171 8.0 17.7 0.00 0.00 0.00 55 1009.5
20260504224554 26 241 6.4 19.3 0.00 0.00 0.00 43 1009.6
20260504224506 26 174 6.4 14.5 0.00 0.00 0.00 55 1009.4
20260504223101 26 122 9.7 20.9 0.00 0.00 0.00 43 1009.6
20260504223008 26 122 9.7 19.3 0.00 0.00 0.00 55 1009.5
20260504221603 26 202 12.9 27.4 0.00 0.00 0.00 41 1009.9
20260504221503 26 193 12.9 22.5 0.00 0.00 0.00 52 1009.8
20260504220100 26 170 6.4 16.1 0.00 0.00 0.00 41 1010.0
20260504220002 26 180 6.4 16.1 0.00 0.00 0.00 53 1009.9
20260504214557 25 170 11.3 25.7 0.00 0.00 0.00 40 1010.2
20260504213121 26 138 11.3 20.9 0.00 0.00 0.00 52 1010.3
20260504213102 26 167 11.3 24.1 0.00 0.00 0.00 41 1010.4
20260504211600 26 167 12.9 25.7 0.00 0.00 0.00 39 1010.7
20260504211556 26 148 12.9 24.1 0.00 0.00 0.00 50 1010.6
20260504210057 27 160 9.7 20.9 0.00 0.00 0.00 50 1010.9
20260504204601 26 186 6.4 17.7 0.00 0.00 0.00 36 1011.2
20260504204553 26 193 6.4 16.1 0.00 0.00 0.00 48 1011.2
20260504203102 26 173 8.0 20.9 0.00 0.00 0.00 35 1011.4
20260504203053 26 175 11.3 17.7 0.00 0.00 0.00 47 1011.3
20260504201601 26 205 11.3 24.1 0.00 0.00 0.00 34 1011.7
20260504200055 26 161 11.3 22.5 0.00 0.00 0.00 34 1012.0
20260504200046 26 158 11.3 19.3 0.00 0.00 0.00 45 1011.8
20260504194556 26 153 8.0 22.5 0.00 0.00 0.00 34 1012.2
20260504194548 26 162 6.4 17.7 0.00 0.00 0.00 46 1012.1
20260504193055 26 174 11.3 24.1 0.00 0.00 0.00 37 1012.5
20260504193039 26 232 11.3 24.1 0.00 0.00 0.00 48 1012.3
20260504191608 26 186 9.7 17.7 0.00 0.00 0.00 35 1012.6
20260504191542 26 192 9.7 14.5 0.00 0.00 0.00 47 1012.4
20260504190116 25 152 6.4 20.9 0.00 0.00 0.00 36 1012.9
20260504190033 25 188 6.4 16.1 0.00 0.00 0.00 47 1012.7
20260504184555 25 183 9.7 22.5 0.00 0.00 0.00 35 1013.0
20260504184534 25 199 9.7 20.9 0.00 0.00 0.00 46 1013.1
20260504183106 25 142 11.3 25.7 0.00 0.00 0.00 36 1013.1
20260504183030 25 160 12.9 19.3 0.00 0.00 0.00 47 1013.1
20260504181600 25 148 11.3 22.5 0.00 0.00 0.00 38 1013.3
20260504181532 25 198 9.7 22.5 0.00 0.00 0.00 47 1013.6
20260504180024 25 155 9.7 19.3 0.00 0.00 0.00 49 1013.9
20260504174558 24 162 12.9 22.5 0.00 0.00 0.00 36 1014.0
20260504174523 24 211 11.3 20.9 0.00 0.00 0.00 48 1014.1
20260504173057 24 204 9.7 29.0 0.00 0.00 0.00 38 1014.0
20260504173021 24 203 9.7 27.4 0.00 0.00 0.00 50 1014.2
20260504171553 23 203 12.9 25.7 0.00 0.00 0.00 39 1014.3
20260504171517 23 187 12.9 24.1 0.00 0.00 0.00 50 1014.4
20260504081558 10 0 0.0 0.0 0.00 0.00 0.00 54 1015.3
20260504080116 10 0 0.0 0.0 0.00 0.00 0.00 54 1015.4
20260504050105 12 0 0.0 0.0 0.00 0.00 0.00 56 1017.0
20260504044601 12 0 0.0 1.6 0.00 0.00 0.00 58 1016.8
20260504044528 12 360 0.0 1.6 0.00 0.00 0.00 69 1016.9
20260504043054 12 0 0.0 4.8 0.00 0.00 0.00 60 1016.9
20260504043029 12 360 0.0 1.6 0.00 0.00 0.00 71 1017.2
20260504041552 13 0 0.0 0.0 0.00 0.00 0.00 60 1016.7
20260504041528 13 360 0.0 0.0 0.00 0.00 0.00 71 1016.9
20260504040056 13 0 0.0 0.0 0.00 0.00 0.00 59 1016.8
20260504040028 13 360 0.0 0.0 0.00 0.00 0.00 70 1017.0